Weather observations for the past three days for
Laughlin Air Force Base Auxiliary Airfield
Imperial (Metric)
Date Time (cdt) Wind (mph) Vis. (mi.) Weather Sky Cond. Temperature (ºF) Relative Humidity Wind Chill (°F) Heat Index (°F) Pressure Precipitation (in)
Air Dwpt 6 hour altimeter (in) sea level (mb) 1 hr 3 hr 6 hr
Max. Min.
06 06:55 SE 10 10.00 Overcast BKN009 OVC020 76.1 72 80.6 76.1 87% 77 29.72 1005.0
06 05:55 SE 9 10.00 Overcast OVC010 76.6 72.1 86% 78 29.72 1005.0
06 04:55 E 10 10.00 Overcast OVC012 77 72.1 85% 78 29.71 1004.7
06 03:55 E 15 10.00 Light Rain OVC013 77.7 72.5 84% 80 29.7 1004.4
06 02:55 E 14 10.00 Fair CLR 77.7 72.1 83% 80 29.69 1004.0
06 01:55 E 15 10.00 Partly Cloudy SCT095 79.2 72 79% 82 29.7 1004.4
06 00:55 E 7 10.00 Overcast OVC100 77.9 70.3 90 76.3 78% 80 29.69 1004.1
05 23:55 NE 7 10.00 Fair CLR 76.8 69.4 78% 78 29.69 1004.1
05 22:55 NE 6 10.00 Fair CLR 78.3 69.3 74% 81 29.68 1003.8
05 21:55 E 5 10.00 Fair CLR 80.2 68.2 67% 83 29.66 1003.2
05 20:55 E 7 10.00 Fair CLR 82.9 68 61% 86 29.64 1002.5
05 19:55 E 8 10.00 Fair CLR 87.6 66.6 50% 90 29.62 1001.7
05 18:55 E 7 10.00 Fair CLR 89.2 65.1 90.5 83.1 45% 91 29.62 1001.7
05 17:55 SE 6 10.00 Fair CLR 90.5 66.2 45% 93 29.63 1002.0
05 16:55 NE 7 10.00 Fair CLR 88.9 66.6 48% 92 29.64 1002.4
05 15:55 NE 6 10.00 A Few Clouds FEW190 88.2 66.6 49% 91 29.66 1003.1
05 14:55 N 3 10.00 A Few Clouds FEW200 87.4 65.3 48% 89 29.68 1003.8
05 13:55 NE 5 10.00 Partly Cloudy FEW180 SCT200 85.6 67.1 54% 88 29.7 1004.4
05 12:55 S 3 10.00 A Few Clouds FEW170 82.9 66.6 83.1 71.2 58% 85 29.72 1005.2
05 11:55 Calm 10.00 A Few Clouds FEW023 79.5 67.1 66% 82 29.74 1005.9
05 10:55 SE 6 10.00 Mostly Cloudy BKN018 78.1 67.1 69% 80 29.75 1006.3
05 09:55 SE 7 10.00 Overcast OVC012 74.8 67.1 77% 29.74 1005.9
05 08:55 E 10 10.00 Overcast OVC010 72.7 67.1 83% 29.73 1005.6
05 07:55 SE 10 10.00 Overcast OVC010 71.4 66.9 86% 29.72 1005.2
05 06:55 SE 10 10.00 Overcast OVC010 71.4 66.6 73.9 70.5 85% 29.7 1004.5
05 05:55 SE 9 10.00 Overcast OVC013 71.1 66 84% 29.69 1004.1
05 04:55 SE 9 10.00 Fair CLR 70.5 65.5 84% 29.69 1004.1
05 03:55 SE 8 10.00 Fair CLR 71.4 65.3 81% 29.7 1004.5
05 02:55 E 8 10.00 Fair CLR 71.8 64.6 78% 29.71 1004.8
05 01:55 SE 9 10.00 Fair CLR 73.4 63.9 72% 29.73 1005.5
05 00:55 SE 7 10.00 Fair CLR 73.8 63.7 85.6 73.6 71% 29.75 1006.3
04 23:55 SE 9 10.00 Fair CLR 74.5 63.1 68% 29.75 1006.3
04 22:55 SE 9 10.00 Fair CLR 76.3 63.1 64% 78 29.76 0.0
04 21:55 SE 10 10.00 Fair CLR 77.9 62.8 60% 80 29.74 1006.0
04 20:55 SE 13 10.00 Fair CLR 80.4 62.2 54% 82 29.73 1005.7
04 19:55 SE 16 10.00 Fair CLR 82.9 61.2 48% 83 29.73 1005.7
04 18:55 SE 14 10.00 Fair CLR 85.5 61 87.8 80.1 44% 86 29.73 1005.7
04 17:55 S 15 10.00 Fair CLR 86.7 61.5 43% 87 29.72 1005.4
04 16:55 SE 15 10.00 Fair CLR 86.7 60.8 42% 87 29.74 1006.0
04 15:55 S 17 10.00 Fair CLR 86.7 59.5 40% 86 29.77 1007.0
04 14:55 SE 13 G 21 10.00 Fair CLR 85.3 59.5 42% 85 29.81 1008.4
04 13:55 S 13 G 20 10.00 A Few Clouds FEW190 83.3 60.3 46% 84 29.83 1009.1
04 12:55 SE 16 10.00 Partly Cloudy FEW140 SCT170 79.9 60.1 79.9 61.3 51% 81 29.86 1010.1
04 11:55 S 12 10.00 Fair CLR 77.9 60.4 55% 79 29.87 1010.5
04 10:55 SE 14 10.00 Fair CLR 0 0 0% 29.9 0.0
04 09:55 SE 14 10.00 Partly Cloudy SCT017 69.3 59.9 72% 29.9 1011.6
04 08:55 SE 13 10.00 Overcast OVC016 66.6 59.2 77% 29.9 1011.6
04 07:55 E 12 10.00 Overcast OVC017 63.5 57.6 81% 29.89 1011.2
04 06:55 E 7 10.00 Fair CLR 61.5 56.7 66.6 61.5 84% 29.89 1011.3
04 05:55 E 9 10.00 Mostly Cloudy BKN150 62.4 56.5 81% 29.88 1010.9
04 04:55 E 10 10.00 A Few Clouds FEW160 63.1 56.5 79% 29.89 1011.2
04 03:55 E 9 10.00 Partly Cloudy SCT170 63.5 55.4 75% 29.9 1011.5
04 02:55 SE 7 10.00 Partly Cloudy SCT180 65.1 54 67% 29.92 1012.2
04 01:55 E 7 10.00 Partly Cloudy SCT190 65.7 52.7 63% 29.93 1012.6
04 00:55 SE 8 10.00 Fair CLR 65.7 53.1 80.1 65.7 64% 29.93 1012.6
03 23:55 SE 6 10.00 Fair CLR 67.5 53.1 60% 29.95 1013.3
03 22:55 E 6 10.00 Fair CLR 70.2 52.2 53% 29.96 1013.6
03 21:55 SE 7 10.00 Mostly Cloudy BKN210 72.1 51.3 48% 29.97 1014.0
03 20:55 SE 7 10.00 Fair CLR 73.2 52.3 48% 29.95 1013.4
03 19:55 S 9 10.00 Fair CLR 77.7 48.6 36% 78 29.95 1013.3
03 18:55 S 15 10.00 Fair CLR 80.1 47.5 81.7 75.6 32% 79 29.95 1013.3
03 17:55 S 14 10.00 Fair CLR 81.3 48.6 32% 80 29.96 1013.7
03 16:55 S 12 G 20 10.00 Fair CLR 81 46.6 30% 80 29.97 1014.1
03 15:55 S 10 10.00 Fair CLR 80.6 45.3 29% 79 30.02 1015.7
03 14:55 S 6 G 22 10.00 A Few Clouds FEW180 79.5 44.4 29% 79 30.06 1017.1
03 13:55 S 15 G 21 10.00 A Few Clouds FEW140 FEW170 FEW190 77.9 47.3 34% 78 30.08 1017.8
03 12:55 SE 10 10.00 A Few Clouds FEW200 75.4 48 75.7 58.1 38% 78 30.12 1019.2
03 11:55 S 13 G 20 10.00 Fair CLR 74.3 46.4 37% 30.16 1020.5
03 10:55 SE 10 10.00 Fair CLR 72 49.5 45% 30.16 1020.6
03 09:55 SE 5 10.00 Fair CLR 67.8 52 57% 30.18 1021.2
03 08:55 SE 8 10.00 Mostly Cloudy BKN160 64 50.7 62% 30.17 1020.9
03 07:55 E 5 10.00 Overcast OVC160 61 51.1 70% 30.16 1020.6
Date Time (cdt) Wind (mph) Vis. (mi.) Weather Sky Cond. Air Dwpt Max. Min. Relative Humidity Wind Chill (°F) Heat Index (°F) altimeter (in) sea level (mb) 1 hr 3 hr 6 hr
6 hour
Temperature (ºF) Pressure Precipitation (in)